Simultaneous Nadir Overpasses (SNOs) Predictions

Prediction of SNOs between FY3D and AQUA Satellite Orbit:

Table of predicted SNOs for the next 14.0 days since TLE Epoch: 5/13/2023
Index Date (FY3D) Time (FY3D) Lat,Lon (FY3D) SZA (FY3D ) Date (AQUA) Time (AQUA) Lat,Lon (AQUA) SZA (AQUA ) Distance(km) Time Diff (sec)
1 05/14/2023 09:58:10 -78.61,-168.71 119.45 05/14/2023 09:59:06 -78.61,-168.71 119.46 0.23 56
2 05/14/2023 10:48:46 78.24, 0.85 60.05 05/14/2023 10:48:22 78.23, 0.93 60.04 2.20 24
3 05/16/2023 23:43:49 78.74, 164.08 60.13 05/16/2023 23:44:57 78.73, 164.21 60.10 3.02 68
4 05/17/2023 00:34:23 -78.31, -25.91 120.47 05/17/2023 00:34:11 -78.30, -25.86 120.47 1.05 12
5 05/19/2023 14:19:57 78.26, -52.01 58.91 05/19/2023 14:19:57 78.27, -52.09 58.92 2.03 0
6 05/22/2023 04:05:37 -78.45, -79.48 121.38 05/22/2023 04:05:46 -78.44, -79.38 121.39 2.29 9
7 05/22/2023 04:56:09 77.92, 90.81 57.94 05/22/2023 04:54:59 77.92, 90.78 57.96 0.73 70
8 05/24/2023 17:51:11 78.46,-105.93 58.16 05/24/2023 17:51:30 78.46,-105.92 58.15 0.11 19



Historial Predications of SNOs between FY3D and AQUA
